Regional Weather Roundup
Issued by NWS

Home | Current Version | Previous Version | Graphics & Text | Print | Product List | Glossary On
Versions: 1 2 3 4 5 6 7 8 9 10 11 12 13 14 15 16 17 18 19 20 21 22 23 24 25 26 27 28 29 30 31 32 33 34 35 36 37 38 39 40 41 42 43 44 45 46 47 48 49 50
000
ASUS45 KTFX 222110
RWRMT
MONTANA REGIONAL WEATHER ROUNDUP
NATIONAL WEATHER SERVICE GREAT FALLS MT
300 PM MDT FRI MAY 22 2015

NOTE: "FAIR" INDICATES FEW OR NO CLOUDS BELOW 12000 FEET WITH NO
SIGNIFICANT WEATHER AND/OR OBSTRUCTIONS TO VISIBILITY.

MTZ001>007-043-222200-
WEST OF THE DIVIDE

CITY           SKY/WX    TMP DP  RH WIND       PRES   REMARKS
KALISPELL      CLEAR     78  32  18 NE10      29.86F
MISSOULA       PTSUNNY   76  41  28 N7        29.85F
BUTTE          CLOUDY    55  42  61 NW9       29.97S
MULLAN PASS    PTSUNNY   60  36  40 VRB5      29.97F
DEER LODGE       N/A     66  37  34 N7        29.94F
EUREKA           N/A     77  30  18 SW6       29.86F
HAMILTON         N/A     70  41  35 NW10      29.85F
LIBBY            N/A     81  34  18 CALM      29.83F
RONAN            N/A     75  39  27 N8        29.92F
$$

MTZ008-052>055-222200-
SOUTHWEST MONTANA

CITY           SKY/WX    TMP DP  RH WIND       PRES   REMARKS
BOZEMAN        PTSUNNY   66  41  40 CALM      29.89F
DILLON         PTSUNNY   62  41  46 E10       29.91S
W YELLOWSTONE  PTSUNNY   52  39  62 S6        29.96F
THREE FORKS      N/A     70  66  86 NE2       29.89F
TWIN BRIDGES     N/A     69  35  28 N13       29.90F
$$

MTZ009-010-012-014-046-048-049-054-222200-
EAST SLOPES AND CENTRAL MONTANA

CITY           SKY/WX    TMP DP  RH WIND       PRES   REMARKS
CUT BANK       PTSUNNY   67  35  30 E10       29.97F
GREAT FALLS    PTSUNNY   70  38  31 NE5       29.93F
MALMSTROM AFB  SUNNY     69  39  34 E10G18    29.93S
HELENA         MOSUNNY   71  41  33 NE14      29.91R
CONRAD           N/A     69  41  36 N13       29.98F
$$

MTZ011-013-016-021-045-047-050-051-222200-
NORTH CENTRAL MONTANA

CITY           SKY/WX    TMP DP  RH WIND       PRES   REMARKS
HAVRE          MOSUNNY   73  39  29 E15       29.94F
LEWISTOWN      CLOUDY    66  45  46 E20       29.95F
N BAR RANCH    FAIR      63  45  51 E9G15     29.99S
CHINOOK          N/A     70  43  37 E15G24    29.95F
FORT BENTON      N/A     70  43  37 NE13      29.93F
$$

MTZ017>020-022>027-061-062-222200-
NORTHEAST MONTANA

CITY           SKY/WX    TMP DP  RH WIND       PRES   REMARKS
GLASGOW        CLOUDY    74  41  30 S21G28    29.98F
JORDAN           N/A     73  42  32 SE22      29.95F
SIDNEY         SUNNY     75  30  19 SE14G22   30.03F
WOLF POINT     MOSUNNY   74  38  27 SE10G21   30.00F
MALTA            N/A     74  45  35 E18       29.93F
PLENTYWOOD       N/A     73  32  21 SE15G28   30.05F
POPLAR           N/A     73  27  17 SE18G28   30.01F
$$

MTZ028>42-056>058-222200-
SOUTHCENTRAL AND SOUTHEAST MONTANA

CITY           SKY/WX    TMP DP  RH WIND       PRES   REMARKS
BAKER          CLOUDY    68  40  35 SE18      30.04F
BILLINGS       PTSUNNY   68  45  43 E6        29.92F
LIVINGSTON     MOSUNNY   66  43  43 E14       29.90F
MILES CITY     CLOUDY    69  43  38 SE23G29   29.97F
BIG TIMBER       N/A     64  45  48 NE12      29.93F
FORSYTH          N/A     70  45  40 SE15G25   29.95F
LAUREL           N/A     66  44  45 NE3       29.91F
ROUNDUP          N/A     67  43  41 NE8       29.86F
$$

REGIONAL REPORTS...DAKOTAS

CITY           SKY/WX    TMP DP  RH WIND       PRES   REMARKS
WILLISTON      SUNNY     76  33  21 S13G24    30.06F
MINOT          MOSUNNY   76  33  21 S14G20    30.09F
DICKINSON      MOSUNNY   73  27  18 SE26G33   30.05F
BEACH          FAIR      70  36  28 S18G32    30.05F
CROSBY         FAIR      75  28  17 S20       30.08S
WATFORD CITY   FAIR      75  32  20 SE23G29   30.05F
BISMARCK       MOSUNNY   76  38  25 S20       30.11F
GRAND FORKS    MOSUNNY   77  38  24 SW12      30.14F
FARGO          SUNNY     74  41  30 S9        30.16F
BUFFALO SD       N/A     65  42  43 S16G28    29.99S
RAPID CITY     CLOUDY    62  43  49 SE16G23   30.07F
$$

REGIONAL REPORTS...WYOMING/IDAHO/WASHINGTON

CITY           SKY/WX    TMP DP  RH WIND       PRES   REMARKS
GILLETTE       CLOUDY    53  43  68 SE22G29   30.02S
SHERIDAN       CLOUDY    64  45  49 SE21G31   29.93S
BUFFALO WY     CLOUDY    55  42  61 SE17      29.99F
CODY           CLOUDY    54  46  76 W9        29.95R
YELLOWSTONE LA   N/A     50  37  61 SE7       30.01F
IDAHO FALLS    PTSUNNY   65  44  46 MISG      29.87F
SALMON         PTSUNNY   70  43  37 E16       29.84S
BOISE          PTSUNNY   68  46  45 CALM      29.84F
SPOKANE        MOSUNNY   78  47  33 CALM      29.82F
$$

REGIONAL REPORTS...ALBERTA

CITY           SKY/WX    TMP DP  RH WIND       PRES   REMARKS
CALGARY        MOSUNNY   70  25  18 VRB6      30.00F
LETHBRIDGE     MOSUNNY   73  37  27 S13       29.96F
MEDICINE HAT   MOSUNNY   77  28  16 S9G18     29.95F
$$

REGIONAL REPORTS...SASKATCHEWAN

CITY           SKY/WX    TMP DP  RH WIND       PRES   REMARKS
SWIFT CURRENT  SUNNY     73  28  19 SE20G25   30.03F
REGINA         MOSUNNY   77  34  20 S9        30.06F
SASKATOON      MOSUNNY   79  32  18 S9G17     30.04F
$$


USA.gov is the U.S. government's official web portal to all federal, state and local government web resources and services.